This demonstration page uses our WeatherBlox Daily Observations layout. Learn more.

Left ArrowRight Arrow

Hourly Observations for April 13, 2022

Temp ( °F °C ) Dew Point ( °F °C ) Humidity (%) Winds ( mph kmh ) Pressure ( in mb ) Visibility ( mi km ) Precip ( " mm )
12:52 am 00:52 Mostly Clear 67 19.4 62 16.7 84 84 SSE 23 37 29.49 999 10 16 0.00 0.00
1:52 am 01:52 Clear 67 19.4 62 16.7 84 84 SSE 21 33 29.51 999 10 16 0.00 0.00
2:52 am 02:52 Clear 67 19.4 63 17.2 87 87 S 21 33 29.49 999 10 16 0.00 0.00
3:52 am 03:52 Clear 67 19.4 63 17.2 87 87 SSE 20 31 29.49 999 10 16 0.00 0.00
4:48 am 04:48 Mostly Cloudy 66 19 63 17 88 88 W 9 15 29.58 1002 10 16 0.00 0.00
4:52 am 04:52 Mostly Cloudy 67 19.4 63 17.2 87 87 W 8 13 29.58 1002 10 16 0.00 0.00
5:02 am 05:02 Cloudy 66 18.9 63 17.2 90 90 SSW 6 9 29.58 1002 10 16 0.00 0.00
5:34 am 05:34 Cloudy 65 18.3 63 17.2 93 93 SSE 8 13 29.55 1001 10 16 0.00 0.00
5:52 am 05:52 Cloudy 66 18.9 63 17.2 90 90 SSE 13 20 29.52 1000 10 16 0.00 0.00
6:30 am 06:30 Cloudy with Nearby Thunderstorms 66 18.9 63 17.2 90 90 SSE 13 20 29.51 999 7 11 0.00 0.00
6:50 am 06:50 Cloudy with Thunderstorms 64 18 63 17 94 94 S 13 20 29.53 1000 9 14 0.01 0.25
6:52 am 06:52 Cloudy with Thunderstorms 65 18.3 63 17.2 93 93 S 14 22 29.52 1000 9 14 0.01 0.25
7:12 am 07:12 Cloudy with Light Rain 64 17.8 63 17.2 96 96 S 14 22 29.54 1000 7 11 0.04 1.02
7:19 am 07:19 Cloudy with Light Rain 64 17.8 63 17.2 96 96 S 14 22 29.54 1000 10 16 0.04 1.02
7:52 am 07:52 Cloudy 65 18.3 64 17.8 97 97 SSE 12 19 29.54 1000 10 16 0.04 1.02
8:37 am 08:37 Cloudy with Nearby Thunderstorms 64 17.8 63 17.2 96 96 W 9 15 29.54 1000 9 14 0.00 0.00
8:52 am 08:52 Cloudy with Nearby Thunderstorms 61 16.1 60 15.6 97 97 NW 12 19 29.53 1000 4 6 0.00 0.00
9:06 am 09:06 Cloudy with Light Rain 60 15.6 59 15 96 96 NNW 15 24 29.54 1000 5 8 0.01 0.25
9:20 am 09:20 Cloudy with Light Rain 59 15 57 13.9 93 93 N 10 17 29.57 1001 10 16 0.01 0.25
9:33 am 09:33 Cloudy with Thunderstorms 58 14.4 57 13.9 97 97 NNW 12 19 29.56 1001 3 5 0.02 0.51
9:52 am 09:52 Cloudy with Nearby Thunderstorms 55 12.8 54 12.2 96 96 WNW 12 19 29.61 1003 4 6 0.09 2.29
9:55 am 09:55 Cloudy with Nearby Thunderstorms 54 12.2 53 11.7 97 97 VRB 6 9 29.61 1003 3 5 0.01 0.25
10:01 am 10:01 Cloudy with Heavy Rain 54 12.2 54 12.2 100 100 NW 12 19 29.62 1003 3 4 0.03 0.76
10:05 am 10:05 Cloudy with Nearby Thunderstorms 53 11.7 53 11.7 100 100 WNW 12 19 29.62 1003 3 4 0.05 1.27
10:11 am 10:11 Cloudy with Nearby Thunderstorms 53 11.7 52 11.1 96 96 WNW 15 24 29.66 1005 3 5 0.09 2.29
10:35 am 10:35 Cloudy with Nearby Thunderstorms 50 10 49 9.4 96 96 N 14 22 29.59 1002 4 6 0.19 4.83
10:52 am 10:52 Cloudy with Thunderstorms 50 10 49 9.4 96 96 NE 16 26 29.49 999 5 8 0.27 6.86
11:05 am 11:05 Cloudy with Nearby Thunderstorms 50 10 50 10 100 100 NNW 14 22 29.55 1001 4 6 0.03 0.76
11:13 am 11:13 Cloudy with Rain 50 10 49 9.4 96 96 W 10 17 29.62 1003 5 8 0.06 1.52
11:31 am 11:31 Cloudy with Rain 49 9.4 48 8.9 97 97 NW 15 24 29.67 1005 5 8 0.11 2.79
11:42 am 11:42 Cloudy with Rain 49 9.4 47 8.3 93 93 NW 13 20 29.69 1006 6 10 0.13 3.30
11:52 am 11:52 Cloudy with Rain 48 8.9 47 8.3 96 96 NW 14 22 29.65 1004 6 10 0.15 3.81
12:25 pm 12:25 Cloudy with Nearby Thunderstorms 45 7.2 44 6.7 97 97 NW 15 24 29.72 1006 10 16 0.02 0.51
12:40 pm 12:40 Cloudy 44 6.7 42 5.6 93 93 NW 20 31 29.72 1006 10 16 0.02 0.51
12:52 pm 12:52 Cloudy with Light Rain 43 6.1 41 5 93 93 NW 23 37 29.67 1005 10 16 0.02 0.51
1:10 pm 13:10 Cloudy with Light Rain 43 6.1 41 5 93 93 NW 18 30 29.74 1007 6 10 0.00 0.00
1:23 pm 13:23 Cloudy with Rain 42 5.6 41 5 96 96 NW 14 22 29.76 1008 3 5 0.02 0.51
1:28 pm 13:28 Cloudy with Heavy Rain 42 5.6 40 4.4 92 92 NW 18 30 29.74 1007 2 3 0.03 0.76
1:39 pm 13:39 Cloudy with Light Rain 42 5.6 41 5 96 96 NW 16 26 29.76 1008 3 5 0.08 2.03
1:52 pm 13:52 Cloudy 42 5.6 40 4.4 92 92 NW 17 28 29.73 1007 8 13 0.08 2.03
2:23 pm 14:23 Cloudy 43 6.1 39 3.9 86 86 NNW 15 24 29.76 1008 10 16 0.00 0.00
2:36 pm 14:36 Cloudy 44 6.7 40 4.4 85 85 NNW 16 26 29.76 1008 10 16 0.00 0.00
2:52 pm 14:52 Cloudy 45 7.2 40 4.4 83 83 NNW 14 22 29.72 1007 10 16 0.00 0.00
3:52 pm 15:52 Cloudy 47 8.3 37 2.8 69 69 NW 16 26 29.73 1007 10 16 0.00 0.00
4:52 pm 16:52 Sunny 52 11.1 37 2.8 57 57 NW 13 20 29.76 1008 10 16 0.00 0.00
5:52 pm 17:52 Sunny 50 10 36 2.2 59 59 NW 15 24 29.77 1008 10 16 0.00 0.00
6:52 pm 18:52 Cloudy 47 8.3 35 1.7 63 63 WNW 13 20 29.83 1010 10 16 0.00 0.00
7:52 pm 19:52 Clear 43 6.1 34 1.1 71 71 WNW 9 15 29.85 1011 10 16 0.00 0.00
8:52 pm 20:52 Clear 41 5 32 0 70 70 NW 9 15 29.92 1013 10 16 0.00 0.00
9:52 pm 21:52 Clear 36 2.2 31 -0.6 82 82 ESE 3 6 29.97 1015 10 16 0.00 0.00
10:52 pm 22:52 Clear 34 1.1 30 -1.1 85 85 Calm 29.98 1015 10 16 0.00 0.00
11:52 pm 23:52 Clear 34 1.1 30 -1.1 85 85 Calm 29.99 1016 10 16 0.00 0.00

Powered by AerisWeather